This is the latest recevied weather packets stored in our database for station/object KC5TIL. If no packets are shown the sender has not sent any weather packets the latest 1 day(s).
| Time | Temp. | Humidity | Pressure | Rain* | Wind** | Luminosity | Snow |
|---|---|---|---|---|---|---|---|
| 1778040674 | 20° C | 74% | 1010.8 hPa | 0 mm | 1.79 m/s, 318° | 0 W/m² | - |
| 1778040372 | 20° C | 74% | 1010.7 hPa | 0 mm | 2.68 m/s, 291° | 0 W/m² | - |
| 1778040069 | 20.56° C | 73% | 1010.9 hPa | 0 mm | 2.68 m/s, 294° | 0 W/m² | - |
| 1778039766 | 20.56° C | 73% | 1010.6 hPa | 0 mm | 3.13 m/s, 353° | 0 W/m² | - |
| 1778039462 | 20.56° C | 73% | 1010.2 hPa | 0 mm | 1.79 m/s, 285° | 0 W/m² | - |
| 1778039160 | 20.56° C | 73% | 1010.1 hPa | 0 mm | 0.45 m/s, 244° | 0 W/m² | - |
| 1778038856 | 20.56° C | 72% | 1010 hPa | 0 mm | 1.34 m/s, 18° | 0 W/m² | - |
| 1778038554 | 21.11° C | 71% | 1010.1 hPa | 0 mm | 2.24 m/s, 319° | 0 W/m² | - |
| 1778038250 | 21.11° C | 71% | 1010 hPa | 0 mm | 0.89 m/s, 274° | 0 W/m² | - |
| 1778037948 | 21.11° C | 70% | 1009.8 hPa | 0 mm | 1.79 m/s, 356° | 0 W/m² | - |
| 1778037645 | 21.11° C | 70% | 1009.5 hPa | 0 mm | 1.34 m/s, 353° | 0 W/m² | - |
| 1778037342 | 21.11° C | 70% | 1009.5 hPa | 0 mm | 1.34 m/s, 308° | 0 W/m² | - |
| 1778037039 | 21.11° C | 69% | 1009.5 hPa | 0 mm | 0.89 m/s, 87° | 0 W/m² | - |
| 1778036737 | 21.11° C | 70% | 1009.5 hPa | 0 mm | 0.89 m/s, 345° | 0 W/m² | - |
| 1778036434 | 21.11° C | 70% | 1009.2 hPa | 0 mm | 2.24 m/s, 27° | 0 W/m² | - |
| 1778036131 | 21.11° C | 70% | 1009.4 hPa | 0 mm | 1.34 m/s, 345° | 0 W/m² | - |
| 1778035827 | 21.67° C | 70% | 1009.4 hPa | 0 mm | 0.89 m/s, 10° | 0 W/m² | - |
| 1778035524 | 21.67° C | 70% | 1009.3 hPa | 0 mm | 1.34 m/s, 343° | 0 W/m² | - |
| 1778035220 | 21.67° C | 70% | 1009.1 hPa | 0 mm | 2.24 m/s, 316° | 0 W/m² | - |
| 1778034916 | 22.22° C | 69% | 1008.9 hPa | 0 mm | 3.13 m/s, 349° | 0 W/m² | - |
| 1778034615 | 22.22° C | 69% | 1008.8 hPa | 0 mm | 3.58 m/s, 293° | 0 W/m² | - |
| 1778034312 | 22.22° C | 68% | 1008.8 hPa | 0 mm | 3.13 m/s, 341° | 0 W/m² | - |
| 1778034009 | 22.78° C | 68% | 1008.4 hPa | 0 mm | 0.89 m/s, 58° | 0 W/m² | - |
| 1778033706 | 22.78° C | 68% | 1008.3 hPa | 0 mm | 2.24 m/s, 264° | 0 W/m² | - |
| 1778033404 | 22.78° C | 68% | 1008.1 hPa | 0 mm | 1.34 m/s, 348° | 0 W/m² | - |
* Rain latest hour (hover to see other rain measurements)
** Current wind speed in m/s (hover to see current wind gust speed)